Weather History for Jackson, TN

Change the Weather History Date:

Sunday, May 12, 2013

  Actual Average Record
Temperature  
Mean Temperature 53 °F 68 °F  
Max Temperature 65 °F 79 °F 92 °F (1962)
Min Temperature 41 °F 56 °F 39 °F (1989)
Degree Days  
Heating Degree Days 12 2  
Month to date heating degree days 63 28  
Since 1 July heating degree days 3647 3554  
Cooling Degree Days 0 4  
Month to date cooling degree days 12 41  
Year to date cooling degree days 68 100  
Growing Degree Days 4 (Base 50)    
Moisture  
Dew Point 37 °F    
Average Humidity 60    
Maximum Humidity 89    
Minimum Humidity 30    
Precipitation  
Precipitation 0.00 in 0.19 in 1.43 in (1983)
Month to date precipitation 3.28 2.27  
Year to date precipitation 29.67 20.12  
Snow  
Snow 0.00 in 0.00 in - ()
Month to date snowfall 0.0 0.0  
Since 1 July snowfall 1.4 4.6  
Snow Depth 0.00 in    
Sea Level Pressure  
Sea Level Pressure 30.18 in    
Wind  
Wind Speed 7 mph (NNW)    
Max Wind Speed 17 mph    
Max Gust Speed 22 mph    
Visibility 10 miles    
Events      
T = Trace of Precipitation, MM = Missing Value Source: NWS Daily Summary

Daily Weather History Graph

Daily Weather History Graph

Search for Another Location

Airport:

Trip Planner

Search our weather history database for the weather conditions in past years. The results will help you decide how hot, cold, wet, or windy it might be!

Date:

Astronomy

May. 12, 2013 Rise Set
Actual Time 5:53 AM CDT 7:51 PM CDT
Civil Twilight 5:24 AM CDT 8:19 PM CDT
Nautical Twilight 4:50 AM CDT 8:53 PM CDT
Astronomical Twilight 4:14 AM CDT 9:30 PM CDT
Moon 7:49 AM CDT (5/12) 10:17 PM CDT (5/12)
Length of Visible Light 14h 54m
Length of Day
13h 58m
Waxing Crescent, 7% of the Moon is Illuminated
May 12
Waxing Crescent
May 17
First Quarter
May 24
Full
May 31
Last Quarter
Jun 8
New

Hourly Weather History & Observations

Time (CDT) Temp. Windchill Dew Point Humidity Pressure Visibility Wind Dir Wind Speed Gust Speed Precip Events Conditions
12:53 AM 57.9 °F - 41.0 °F 53% 30.12 in 10.0 mi NNE 11.5 mph 21.9 mph N/A   Scattered Clouds
1:53 AM 54.0 °F - 41.0 °F 62% 30.13 in 10.0 mi North 8.1 mph - N/A   Clear
2:53 AM 52.0 °F - 39.9 °F 63% 30.13 in 10.0 mi NNE 6.9 mph - N/A   Clear
3:53 AM 48.0 °F - 41.0 °F 77% 30.14 in 10.0 mi NNE 6.9 mph - N/A   Clear
4:53 AM 48.9 °F - 39.0 °F 69% 30.15 in 10.0 mi NNE 4.6 mph - N/A   Clear
5:53 AM 45.0 °F 42.6 °F 39.9 °F 82% 30.17 in 10.0 mi North 4.6 mph - N/A   Clear
6:53 AM 48.0 °F - 43.0 °F 83% 30.19 in 10.0 mi Calm Calm - N/A   Clear
7:53 AM 54.0 °F - 41.0 °F 62% 30.20 in 10.0 mi NNE 5.8 mph - N/A   Clear
8:44 AM 55.4 °F - 37.4 °F 51% 30.22 in 10.0 mi North 9.2 mph - N/A   Partly Cloudy
8:53 AM 57.0 °F - 39.0 °F 51% 30.22 in 10.0 mi North 11.5 mph - N/A   Partly Cloudy
9:53 AM 59.0 °F - 34.0 °F 39% 30.22 in 10.0 mi North 15.0 mph 19.6 mph N/A   Clear
10:53 AM 60.1 °F - 32.0 °F 35% 30.23 in 10.0 mi NNW 11.5 mph 18.4 mph N/A   Clear
11:53 AM 61.0 °F - 33.1 °F 35% 30.21 in 10.0 mi NW 10.4 mph - N/A   Clear
12:53 PM 63.0 °F - 36.0 °F 37% 30.21 in 10.0 mi NW 11.5 mph - N/A   Clear
1:53 PM 63.0 °F - 33.1 °F 33% 30.19 in 10.0 mi NW 10.4 mph 16.1 mph N/A   Clear
2:53 PM 64.0 °F - 33.1 °F 31% 30.19 in 10.0 mi NW 10.4 mph 18.4 mph N/A   Clear
3:53 PM 64.0 °F - 32.0 °F 30% 30.18 in 10.0 mi WNW 11.5 mph 17.3 mph N/A   Clear
4:53 PM 64.0 °F - 32.0 °F 30% 30.19 in 10.0 mi NW 12.7 mph - N/A   Clear
5:53 PM 63.0 °F - 30.0 °F 29% 30.19 in 10.0 mi NW 9.2 mph - N/A   Clear
6:53 PM 61.0 °F - 34.0 °F 36% 30.17 in 10.0 mi NW 5.8 mph - N/A   Clear
7:53 PM 55.9 °F - 37.0 °F 49% 30.17 in 10.0 mi WNW 5.8 mph - N/A   Clear
8:53 PM 48.9 °F - 39.0 °F 69% 30.17 in 10.0 mi SW 3.5 mph - N/A   Clear
9:53 PM 46.9 °F - 41.0 °F 80% 30.19 in 10.0 mi SSW 4.6 mph - N/A   Clear
10:53 PM 44.1 °F 42.5 °F 41.0 °F 89% 30.19 in 10.0 mi SSW 3.5 mph - N/A   Clear
11:53 PM 43.0 °F - 39.9 °F 89% 30.19 in 10.0 mi Calm Calm - N/A   Clear